FW3322 Weather Reports


Display with metric or nautical units.
time (UTC)temp
F
wind
direction
speed
MPH
gust
MPH
rain 1hr
in
rain 24hr
in
rain mn
in
humidity
%
barometer
mb
20260905170006 97 348 0.0 6.0 0.00 0.00 0.00 53 1014.7
20260905164503 96 225 1.0 4.0 0.00 0.00 0.00 54 1014.7
20260905163002 96 15 0.0 6.0 0.00 0.00 0.00 55 1014.6
20260905161558 95 221 0.0 7.0 0.00 0.00 0.00 56 1014.7
20260905161500 95 209 1.0 7.0 0.00 0.00 0.00 56 1014.8
20260905160059 94 286 2.0 5.0 0.00 0.00 0.00 58 1014.8
20260905154555 92 142 4.0 8.0 0.00 0.00 0.00 60 1014.9
20260905153053 92 130 2.0 8.0 0.00 0.00 0.00 60 1014.7
20260905151546 91 205 1.0 9.0 0.00 0.00 0.00 61 1014.7
20260905150043 90 296 0.0 5.0 0.00 0.00 0.00 63 1014.5
20260905144548 90 198 0.0 4.0 0.00 0.00 0.00 65 1014.5
20260905143039 89 184 0.0 4.0 0.00 0.00 0.00 66 1014.6
20260905141600 87 152 0.0 4.0 0.00 0.00 0.00 67 1014.6
20260905140030 85 142 0.0 4.0 0.00 0.00 0.00 71 1014.7
20260905134525 84 205 0.0 5.0 0.00 0.00 0.00 73 1014.5
20260905133024 82 195 0.0 4.0 0.00 0.00 0.00 76 1014.4
20260905131516 80 134 0.0 1.0 0.00 0.00 0.00 81 1014.3
20260905130012 78 134 0.0 0.0 0.00 0.00 0.00 85 1014.2
20260905124510 75 134 0.0 0.0 0.00 0.00 0.00 89 1014.0
20260905123007 0 0.0 0.0 0.00 0.00 0.00 1013.9
20260905121501 0 0.0 0.0 0.00 0.00 0.00 1013.7
20260905120059 0 0.0 0.0 0.00 0.00 0.00 1013.7
20260905114625 0 0.0 0.0 0.00 0.00 0.00 1013.5
20260905113048 0 0.0 0.0 0.00 0.00 0.00 1013.4
20260905111551 0 0.0 0.0 0.00 0.00 0.00 1013.4
20260905110040 0 0.0 0.0 0.00 0.00 0.00 1013.2
20260905104535 0 0.0 0.0 0.00 0.00 0.00 1013.2
20260905103035 0 0.0 0.0 0.00 0.00 0.00 1013.2
20260905101529 72 137 0.0 0.0 0.00 0.00 0.00 91 1013.1
20260905100029 73 137 0.0 0.0 0.00 0.00 0.00 92 1013.1
20260905094527 73 136 0.0 0.0 0.00 0.00 0.00 91 1013.1
20260905093029 74 136 0.0 0.0 0.00 0.00 0.00 90 1013.1
20260905091524 74 136 0.0 0.0 0.00 0.00 0.00 90 1013.0
20260905090023 74 136 0.0 0.0 0.00 0.00 0.00 89 1013.0
20260905084521 74 136 0.0 0.0 0.00 0.00 0.00 89 1012.8
20260905083021 74 136 0.0 0.0 0.00 0.00 0.00 89 1012.8
20260905081520 75 136 0.0 0.0 0.00 0.00 0.00 89 1012.7
20260905080021 75 136 0.0 0.0 0.00 0.00 0.00 88 1012.7
20260905074518 76 137 0.0 0.0 0.00 0.00 0.00 88 1012.8
20260905073019 76 136 0.0 0.0 0.00 0.00 0.00 87 1012.8
20260905071514 76 136 0.0 0.0 0.00 0.00 0.00 87 1012.8
20260905070013 77 136 0.0 0.0 0.00 0.00 0.00 86 1012.9
20260905064513 77 136 0.0 0.0 0.00 0.00 0.00 86 1013.0
20260905063011 76 136 0.0 0.0 0.00 0.00 0.00 86 1013.1
20260905061510 76 137 0.0 0.0 0.00 0.00 0.00 87 1013.3
20260905060013 77 209 0.0 0.0 0.00 0.00 0.00 85 1013.2
20260905054506 78 209 0.0 0.0 0.00 0.00 0.00 86 1013.0
20260905053005 78 209 0.0 0.0 0.00 0.00 0.00 85 1013.1
20260905051504 77 209 0.0 0.0 0.00 0.00 0.00 85 1013.0
20260905050003 77 164 0.0 0.0 0.00 0.00 0.00 85 1013.0
20260905044602 78 219 0.0 0.0 0.00 0.00 0.00 85 1013.0
20260905043100 79 219 0.0 0.0 0.00 0.00 0.00 83 1013.0
20260905041602 79 219 0.0 0.0 0.00 0.00 0.00 81 1012.9
20260905040059 79 219 0.0 0.0 0.00 0.00 0.00 81 1012.9
20260905034611 80 219 0.0 0.0 0.00 0.00 0.00 81 1012.9
20260905033107 80 219 0.0 0.0 0.00 0.00 0.00 80 1012.9
20260905031613 81 219 0.0 0.0 0.00 0.00 0.00 78 1012.7
20260905030057 82 219 0.0 0.0 0.00 0.00 0.00 77 1012.6
20260905024556 82 219 0.0 0.0 0.00 0.00 0.00 75 1012.4
20260905023125 83 219 0.0 0.0 0.00 0.00 0.00 74 1012.2
20260905021555 84 219 0.0 0.0 0.00 0.00 0.00 72 1011.9
20260905020055 84 219 0.0 0.0 0.00 0.00 0.00 72 1011.7
20260905014555 86 219 0.0 0.0 0.00 0.00 0.00 70 1011.5
20260905013053 87 219 0.0 0.0 0.00 0.00 0.00 67 1011.4
20260905011558 89 219 0.0 0.0 0.00 0.00 0.00 64 1011.2
20260905010053 90 219 0.0 0.0 0.00 0.00 0.00 63 1011.1
20260905004552 93 222 0.0 1.0 0.00 0.00 0.00 61 1011.2
20260905003051 96 219 0.0 0.0 0.00 0.00 0.00 54 1011.1
20260905001550 98 220 0.0 0.0 0.00 0.00 0.00 51 1011.1
20260904234548 100 215 0.0 6.0 0.00 0.00 0.00 49 1011.1
20260904233049 100 141 0.0 2.0 0.00 0.00 0.00 49 1011.1
20260904231545 100 140 1.0 5.0 0.00 0.00 0.00 48 1011.2
20260904230043 100 181 3.0 6.0 0.00 0.00 0.00 48 1011.2
20260904224542 101 135 1.0 6.0 0.00 0.00 0.00 49 1011.3
20260904223038 101 130 2.0 7.0 0.00 0.00 0.00 47 1011.2
20260904221535 99 128 4.0 10.0 0.00 0.00 0.00 49 1011.2
20260904214531 99 226 4.0 10.0 0.00 0.00 0.00 49 1011.5
20260904213034 99 134 4.0 11.0 0.00 0.00 0.00 50 1011.5
20260904211526 100 125 5.0 10.0 0.00 0.00 0.00 49 1011.7
20260904210033 99 150 3.0 13.0 0.00 0.00 0.00 50 1011.9
20260904204521 99 130 3.0 12.0 0.00 0.00 0.00 50 1012.0
20260904203022 100 136 3.0 8.0 0.00 0.00 0.00 49 1012.1
20260904201515 99 128 2.0 9.0 0.00 0.00 0.00 50 1012.3
20260904200019 98 131 6.0 15.0 0.00 0.00 0.00 51 1012.5
20260904194539 98 245 3.0 9.0 0.00 0.00 0.00 48 1012.7
20260904193012 98 150 9.0 18.0 0.00 0.00 0.00 49 1012.8
20260904191516 98 183 4.0 11.0 0.00 0.00 0.00 52 1012.8
20260904190008 99 141 7.0 12.0 0.00 0.00 0.00 49 1013.2
20260904184504 97 201 5.0 13.0 0.00 0.00 0.00 53 1013.3
20260904183002 97 342 2.0 9.0 0.00 0.00 0.00 54 1013.4
20260904181502 97 135 4.0 9.0 0.00 0.00 0.00 54 1013.6
20260904180117 96 133 5.0 12.0 0.00 0.00 0.00 53 1013.8
20260904174610 97 192 5.0 12.0 0.00 0.00 0.00 53 1013.9
20260904173059 95 213 6.0 12.0 0.00 0.00 0.00 57 1014.1
20260904171551 94 238 1.0 12.0 0.00 0.00 0.00 58 1014.3